Location: Burgerwiesen
(48.6500°N, 15.6167°E)
Time: 18:35:17
(UTC+00:00)

SL-16 R/B - Pass Details

Date: 09 April 2020
Orbit: 842 x 846 km, 71.0° (Epoch: 01 June)

Event Time Altitude Azimuth Distance (km) Brightness Sun altitude
Rises 21:29:26 0° 333° (NNW) 3,415 6.6 -30.0°
Reaches altitude 10° 21:31:57 10° 339° (NNW) 2,477 5.5 -30.2°
Enters shadow 21:36:59 51° 35° (NE) 1,054 2.7 -30.6°
